Theta_e
335 335 339 338 337 339 340 340 341 341 338 338 342 341 338 337 335 336 338 337 336 337 333 336 337 334 334 334 333 333 331 332 330
328 330 333 333 335 337 339 340 340 340 340 341 338 340 341 337 333 335 337 338 336 335 333 335 335 335 333 335 335 333 331 332 330
316 320 322 326 328 329 331 335 336 336 338 339 340 341 339 341 337 333 335 338 337 336 334 338 336 335 335 333 332 332 331 330 329
310 311 311 313 317 319 321 322 325 330 331 330 334 338 340 338 339 337 335 337 337 337 335 337 338 336 335 334 334 332 332 331 330
308 309 307 307 311 309 310 309 309 312 317 327 326 329 333 338 338 338 336 337 337 337 335 333 339 339 336 334 334 333 333 331 331
307 307 308 309 311 311 311 311 309 305 313 317 323 324 329 337 339 339 336 337 336 337 336 334 339 339 339 337 335 334 334 333 331
307 307 309 309 310 310 310 309 309 310 309 310 311 316 322 325 328 337 338 338 336 338 339 337 338 340 340 338 337 336 335 334 332
308 307 307 307 307 307 307 307 307 307 307 307 307 309 312 317 317 330 330 337 336 335 336 338 339 337 339 340 339 338 336 335 333
307 307 307 306 306 307 306 306 306 306 306 306 306 307 308 308 313 315 327 329 334 336 338 339 339 339 339 340 339 339 338 336 335
307 307 306 307 306 306 306 306 306 305 305 305 305 305 306 307 308 310 313 318 321 329 336 338 338 339 339 339 339 339 338 335 336
303 306 306 306 306 306 305 306 305 305 304 304 304 304 305 305 305 306 308 309 313 321 325 334 338 337 338 339 339 337 337 336 335
302 303 303 302 302 304 305 305 305 305 305 305 305 304 304 304 304 304 305 306 308 310 316 324 331 336 338 339 337 337 337 337 335
301 302 302 302 301 301 305 305 304 304 305 305 305 305 304 304 303 303 303 304 305 307 310 313 326 332 334 338 338 338 336 333 335
300 301 302 302 301 300 301 301 304 305 305 305 305 304 304 304 303 303 303 303 304 305 305 306 310 316 325 334 337 338 339 337 336
299 300 302 302 301 301 301 301 300 301 302 303 304 304 303 303 304 304 303 303 303 303 305 308 309 308 312 324 331 335 338 338 338
298 298 299 301 301 301 301 301 302 301 302 304 303 302 302 302 301 303 304 302 303 304 305 305 305 305 309 313 319 333 334 338 339
297 298 299 300 300 301 300 301 301 302 301 302 302 300 301 301 301 301 302 303 305 304 303 304 308 316 315 312 317 322 327 331 337
299 298 298 298 298 300 301 301 302 302 302 301 301 300 299 299 301 303 303 302 302 302 302 303 305 307 313 318 320 321 323 328 332
298 298 298 298 298 298 299 300 301 302 301 302 301 300 300 299 299 301 302 303 303 302 302 302 303 305 308 315 316 320 323 324 325
298 298 298 298 298 298 298 299 299 301 301 300 301 301 300 300 299 300 300 303 302 302 302 302 307 307 309 312 313 315 316 324 327
Wind_Speed
14 14 16 6 4 5 6 8 8 9 12 13 12 11 11 11 11 9 9 11 7 8 7 7 9 7 6 6 7 7 6 7 7
14 10 12 12 9 7 4 4 3 6 8 11 14 15 14 13 13 13 14 15 10 9 7 10 9 7 6 7 7 6 6 7 6
12 11 12 10 9 8 7 8 11 9 6 6 10 14 17 15 15 16 16 15 11 12 9 9 9 9 8 8 7 6 6 5 5
11 11 11 11 11 10 9 9 8 11 19 12 15 13 16 19 19 18 18 13 17 17 12 11 10 10 9 8 8 6 5 5 5
13 12 17 12 10 11 11 10 9 7 7 11 12 11 14 14 21 21 21 16 21 18 13 12 13 13 12 11 11 9 8 7 6
15 16 15 14 11 12 12 12 12 9 5 8 8 11 10 9 14 22 23 10 13 15 13 13 15 15 15 14 13 12 10 9 8
18 15 11 13 11 12 11 11 12 11 10 10 11 10 7 10 12 14 23 26 15 12 12 15 15 16 16 16 16 14 13 13 11
19 18 15 14 14 13 12 11 10 12 13 14 14 12 12 11 11 11 12 22 27 21 17 15 17 20 18 18 18 18 17 15 14
21 21 19 18 16 14 13 12 12 12 13 15 17 15 14 13 13 11 11 8 13 23 23 23 21 21 22 21 20 20 21 20 18
26 22 23 22 17 14 15 13 13 13 13 16 16 16 16 16 13 15 13 11 12 14 16 20 23 26 25 25 24 25 24 23 22
27 24 21 17 17 17 17 14 13 17 17 15 17 18 17 17 17 16 16 17 16 15 16 18 21 27 27 27 27 29 28 27 27
32 28 22 20 19 21 18 17 17 17 17 17 16 17 18 18 16 17 18 18 18 19 17 18 20 22 26 29 31 31 31 31 29
32 30 20 20 23 23 22 20 20 20 20 20 19 18 18 18 18 17 16 18 22 23 23 19 15 19 23 26 30 31 31 32 32
31 29 27 25 21 23 21 18 18 19 19 22 21 21 20 19 18 20 21 20 21 24 28 30 29 23 21 23 25 30 31 34 35
32 30 28 25 26 22 21 22 24 26 25 24 20 21 20 19 21 24 24 22 24 25 26 27 28 30 29 24 26 27 29 33 35
31 32 29 26 25 25 22 23 24 25 23 19 17 21 24 27 28 29 24 26 24 20 23 26 26 29 29 27 28 25 28 30 32
37 34 33 30 29 26 29 27 25 23 23 16 8 2 11 21 28 29 29 25 14 16 18 21 20 17 22 29 26 27 28 28 29
30 31 31 29 27 25 23 24 23 22 23 23 11 2 5 4 18 16 16 13 15 23 23 23 22 24 23 21 16 22 28 27 27
35 35 33 32 29 28 27 25 29 27 19 19 23 24 17 5 7 23 20 18 18 19 23 24 23 26 25 23 25 22 19 25 28
33 33 33 31 30 28 27 29 29 27 27 24 21 23 25 23 6 5 6 18 19 19 21 23 14 18 23 25 25 27 24 23 26
Wind_Direction
14 21 26 341 304 308 286 280 277 275 265 258 247 250 248 249 253 244 272 216 198 182 195 182 181 175 167 159 148 142 128 127 115
19 358 6 14 20 5 334 6 310 291 288 273 260 252 246 250 252 253 275 212 223 221 214 201 194 189 181 169 159 157 140 133 122
8 6 6 0 345 339 319 277 267 286 293 293 286 261 253 246 257 255 255 228 225 227 221 215 215 205 202 191 185 182 172 160 143
345 341 342 347 346 340 332 320 310 293 269 300 284 276 255 245 237 247 261 237 227 231 236 217 220 220 222 218 211 204 200 184 169
326 328 318 324 325 323 321 315 307 309 311 272 287 293 276 264 249 237 240 258 237 225 227 226 223 223 224 225 220 220 213 207 197
304 308 305 318 315 317 312 316 316 311 309 281 270 281 290 274 256 248 238 244 218 219 223 229 225 230 224 222 223 219 215 213 209
293 296 283 296 299 307 311 310 311 313 294 295 283 269 308 298 295 268 248 236 232 218 231 237 234 233 233 230 223 224 220 218 218
295 291 290 281 287 289 288 299 303 304 302 302 303 299 287 269 308 294 276 247 234 245 239 239 242 243 236 234 229 226 225 221 221
283 286 289 285 282 277 285 286 288 293 293 299 298 293 290 289 280 296 294 282 251 242 249 250 249 246 242 238 236 229 225 223 217
279 270 280 280 278 274 283 274 283 291 288 292 294 292 289 287 282 279 281 289 279 264 260 253 253 250 244 241 237 236 231 225 220
297 284 276 282 286 285 279 283 285 289 284 284 287 291 285 285 284 283 282 279 278 275 270 260 253 248 246 244 242 240 237 232 225
290 291 279 288 297 299 287 284 281 284 290 284 283 285 288 284 280 278 280 282 280 272 279 269 262 260 250 247 246 244 240 237 232
286 284 273 278 276 282 284 277 276 277 279 282 277 280 286 289 285 285 281 280 277 275 267 273 275 263 260 258 250 244 241 240 241
292 288 267 257 265 267 272 277 283 272 268 270 275 274 270 277 288 286 282 279 278 278 276 270 268 273 271 260 259 249 242 239 238
287 290 283 263 249 260 263 267 269 269 272 273 270 276 288 288 278 278 274 273 276 272 270 272 275 274 267 268 262 259 251 244 237
285 288 286 283 261 259 261 261 263 253 262 257 268 277 278 275 272 269 260 272 277 281 284 276 274 274 273 268 261 259 255 250 244
274 269 273 273 270 263 256 255 259 257 249 252 248 272 283 276 276 267 263 253 263 277 291 296 293 292 287 269 266 260 257 257 252
270 271 274 279 281 276 267 250 252 244 247 240 226 242 230 257 272 269 276 273 278 283 290 287 295 297 289 298 287 261 258 259 258
266 268 270 269 266 266 266 265 253 251 240 238 239 250 264 256 280 286 282 277 272 266 276 288 289 283 291 295 293 281 266 257 262
264 261 263 263 262 260 255 257 255 249 236 230 232 233 240 256 230 260 262 250 260 264 269 275 288 295 287 287 294 288 283 266 263